Torna al catalogo

STARLINK-4566

AttivoComunicazioniSSO
NORAD 53693·PAYLOAD·🇺🇸 United States

Lanciato Aug 31, 2022 da Vandenberg Space Force Base

Loading…

Prossimi Passaggi (prossime 24 ore)

TLE

AggiornatoSource: CelesTrak SupGP

Epoca: Sep 15, 2026, 02:21 UTC

1 53693C 22105AX  26258.09840278  .00064273  00000+0  19946-2 0  2587
2 53693  97.2844 134.9064 0002080  94.2648   1.6529 15.33414816    12

Traccia STARLINK-4566 in tempo reale con AllMySat

Download on the App Store